This is the latest recevied weather packets stored in our database for station/object K0SNA. If no packets are shown the sender has not sent any weather packets the latest 1 day(s).
| Time | Temp. | Humidity | Pressure | Rain* | Wind** | Luminosity | Snow |
|---|---|---|---|---|---|---|---|
| 1836274750 | 18.33° C | 96% | 1015.1 hPa | 0 mm | 0 m/s | 0 W/m² | - |
| 1836274447 | 18.33° C | 96% | 1015 hPa | 0 mm | 0 m/s | 0 W/m² | - |
| 1836274301 | 17.78° C | 96% | 1015.2 hPa | 0 mm | 0 m/s | 0 W/m² | - |
| 1836274145 | 18.33° C | 96% | 1015.2 hPa | 0 mm | 0 m/s | 0 W/m² | - |
| 1778044597 | 3.89° C | 55% | 1014.4 hPa | 0 mm | 0.89 m/s, 229° | 0 W/m² | - |
| 1778044293 | 3.89° C | 55% | 1014.1 hPa | 0 mm | 0.89 m/s, 264° | 0 W/m² | - |
| 1778043992 | 3.89° C | 55% | 1014.1 hPa | 0 mm | 0.89 m/s, 282° | 0 W/m² | - |
| 1778043688 | 4.44° C | 55% | 1014 hPa | 0 mm | 1.34 m/s, 292° | 0 W/m² | - |
| 1778043385 | 4.44° C | 55% | 1013.9 hPa | 0 mm | 1.34 m/s, 49° | 0 W/m² | - |
| 1778043081 | 4.44° C | 54% | 1013.9 hPa | 0 mm | 0.45 m/s, 221° | 0 W/m² | - |
| 1778042779 | 4.44° C | 55% | 1014 hPa | 0 mm | 1.34 m/s, 323° | 0 W/m² | - |
| 1778042476 | 4.44° C | 55% | 1014 hPa | 0 mm | 1.34 m/s, 347° | 0 W/m² | - |
| 1778042173 | 4.44° C | 54% | 1013.9 hPa | 0 mm | 1.79 m/s, 338° | 0 W/m² | - |
| 1778041871 | 4.44° C | 54% | 1014.1 hPa | 0 mm | 0 m/s | 0 W/m² | - |
| 1778041570 | 4.44° C | 54% | 1014 hPa | 0 mm | 0.45 m/s, 230° | 0 W/m² | - |
| 1778041268 | 5° C | 54% | 1014 hPa | 0 mm | 0 m/s | 0 W/m² | - |
| 1778040966 | 5° C | 53% | 1013.9 hPa | 0 mm | 0.45 m/s, 209° | 0 W/m² | - |
| 1778040663 | 5° C | 53% | 1013.9 hPa | 0 mm | 0.89 m/s, 294° | 0 W/m² | - |
| 1778040361 | 5° C | 53% | 1013.8 hPa | 0 mm | 0.45 m/s, 213° | 0 W/m² | - |
| 1778040056 | 5° C | 53% | 1013.9 hPa | 0 mm | 1.34 m/s, 296° | 0 W/m² | - |
| 1778039754 | 5° C | 53% | 1013.9 hPa | 0 mm | 0.89 m/s, 73° | 0 W/m² | - |
| 1778039450 | 5° C | 53% | 1013.8 hPa | 0 mm | 0.45 m/s, 224° | 0 W/m² | - |
| 1778039148 | 5.56° C | 52% | 1013.9 hPa | 0 mm | 0.89 m/s, 228° | 0 W/m² | - |
| 1778038844 | 5.56° C | 52% | 1013.7 hPa | 0 mm | 0.89 m/s, 295° | 0 W/m² | - |
| 1778038542 | 5.56° C | 52% | 1013.5 hPa | 0 mm | 1.79 m/s, 319° | 0 W/m² | - |
* Rain latest hour (hover to see other rain measurements)
** Current wind speed in m/s (hover to see current wind gust speed)